Wind_Speed
32 33 33 34 34 35 35 35 36 36 36 35 36 37 37 37 36 36 36 36 36 37 38 38 39 39 40 41 42 42 42 43 44 45 46 47 47 48 48 49 49 49 50 51
33 34 34 34 34 35 35 36 36 36 36 36 37 37 37 37 36 36 36 36 36 36 37 38 39 39 40 41 41 42 42 43 43 44 45 46 47 47 47 48 49 49 50 50
33 34 35 36 34 34 35 35 35 35 34 35 36 36 36 36 37 37 36 35 35 36 36 37 38 38 39 40 41 42 42 43 44 44 45 46 46 46 47 48 48 49 50 50
35 35 37 36 34 34 35 34 35 35 35 35 35 35 36 35 35 35 36 36 36 36 36 37 38 38 39 40 41 41 42 43 43 44 45 46 46 46 47 48 48 49 50 50
36 36 37 35 34 34 34 34 34 35 35 35 35 36 35 35 35 35 35 36 37 38 38 37 38 38 39 40 40 41 42 43 43 43 44 45 45 46 47 48 48 49 49 50
36 37 37 34 33 33 34 34 33 34 35 35 35 35 34 35 35 36 36 36 36 37 38 38 39 39 40 41 41 42 43 43 43 43 44 44 45 45 46 47 48 48 48 49
35 36 36 34 34 33 34 34 33 33 34 35 35 36 36 36 36 37 37 37 38 38 38 39 39 39 40 41 41 42 42 43 43 44 44 44 44 45 45 46 46 47 48 48
35 36 35 34 34 34 34 34 34 34 34 35 36 36 37 37 37 37 37 37 38 39 39 39 39 39 39 40 40 41 41 41 42 43 43 43 44 44 44 44 45 45 46 46
35 35 36 36 36 36 36 35 35 35 35 36 36 36 37 36 36 37 37 37 37 37 38 37 37 38 38 38 38 38 38 38 39 40 41 41 41 42 42 43 43 44 44 44
34 34 35 36 36 37 37 37 36 36 36 36 36 36 36 35 35 35 36 36 36 37 37 36 36 36 36 37 37 37 37 37 37 38 39 39 39 40 41 41 41 42 42 43
34 34 35 35 35 36 36 36 36 36 36 36 36 36 36 35 35 34 35 35 35 35 35 35 35 35 35 35 35 35 35 36 36 37 37 36 36 37 38 39 40 40 41 42
34 34 34 34 34 35 35 35 35 35 35 35 35 35 36 36 36 35 35 35 35 34 34 34 34 34 34 34 34 34 34 34 35 35 35 36 36 36 37 37 39 40 40 41
34 34 34 34 33 33 33 34 34 34 34 34 34 34 35 35 35 35 34 34 34 34 33 33 32 32 33 33 33 33 34 35 35 35 35 36 36 37 37 37 38 39 39 40
33 34 34 34 33 33 33 33 33 33 34 34 34 34 34 34 35 35 35 34 34 34 33 32 32 32 32 32 33 34 34 34 35 36 36 37 37 38 38 39 39 39 40 40
32 33 33 33 32 32 32 32 33 33 33 33 33 33 33 33 33 33 33 33 33 33 32 32 31 31 32 32 33 33 34 34 35 36 36 37 38 39 40 40 40 40 40 41
32 32 32 32 31 32 32 32 32 32 32 32 32 32 32 32 32 32 32 32 32 32 31 31 31 31 31 32 33 33 34 34 35 35 36 37 38 39 39 40 40 40 40 41
31 32 31 31 31 31 31 32 32 31 31 31 31 30 30 30 30 30 31 31 31 31 31 31 31 30 31 32 32 32 33 34 35 36 36 37 37 38 38 38 39 38 38 39
31 31 31 30 30 30 30 30 30 30 30 30 30 30 29 29 30 30 30 30 30 30 31 31 30 30 31 32 32 33 33 34 35 35 36 36 36 36 36 36 36 36 36 36
31 31 30 29 29 29 28 28 28 28 29 29 29 29 29 29 29 30 29 30 30 30 30 30 30 30 31 32 33 33 34 34 35 35 35 35 35 35 35 35 34 35 35 35
30 30 29 29 29 28 27 27 28 28 28 28 28 28 28 28 29 29 29 29 29 30 30 30 30 31 32 33 33 33 34 34 34 34 34 34 33 33 33 33 33 33 33 34
29 29 29 29 28 28 28 27 28 28 28 28 28 28 28 28 28 29 29 29 30 30 30 31 31 31 32 33 33 33 34 34 33 33 32 32 32 32 31 31 31 31 32 32
29 29 29 29 28 28 28 28 27 28 28 28 28 28 28 28 28 29 30 30 31 31 31 31 31 31 32 33 33 33 33 32 32 32 32 32 31 31 31 31 31 31 31 31
29 29 29 28 28 28 27 27 27 28 28 28 28 28 28 29 29 30 30 31 31 31 30 30 31 31 31 31 31 32 32 32 31 32 32 32 31 31 31 31 31 31 31 31
29 28 28 27 27 27 28 28 29 29 29 29 29 29 29 29 30 30 31 31 31 30 30 30 31 31 31 31 31 31 31 31 31 31 31 31 31 31 31 31 31 31 31 30
28 28 28 28 28 28 28 29 29 29 29 30 30 30 30 30 30 31 31 31 31 31 31 31 30 30 30 31 31 31 31 30 30 30 31 31 30 30 30 31 31 30 30 30
27 27 27 28 28 28 28 28 28 29 29 30 30 30 30 31 31 31 31 32 31 31 30 30 30 30 30 30 30 30 29 29 29 29 29 29 29 29 29 30 30 30 29 28
27 27 27 27 28 28 29 29 30 30 30 30 30 30 30 31 31 31 31 31 31 30 30 30 30 30 29 29 29 29 29 28 28 28 27 27 27 27 28 28 28 28 27 27
Wind_Direction
282 281 281 282 282 281 280 281 282 284 284 286 286 286 286 285 284 283 281 278 276 272 270 268 268 266 264 264 265 266 266 265 265 264 263 262 261 261 261 261 261 260 260 261
282 281 281 280 282 282 282 281 282 282 282 284 284 285 284 284 283 283 281 280 278 274 271 269 268 267 266 266 266 266 266 266 266 265 265 264 263 263 262 263 262 262 262 262
281 281 281 281 283 283 282 281 281 282 283 284 284 284 283 283 282 282 281 280 279 276 273 270 269 268 267 266 266 267 266 266 266 265 265 265 265 265 264 264 264 264 264 263
283 282 282 283 284 285 284 282 281 282 283 283 284 284 283 283 283 282 281 280 278 277 275 272 269 267 268 268 267 267 267 267 267 266 266 265 266 267 267 267 267 266 266 265
286 286 286 286 286 285 284 283 283 283 282 282 283 283 283 283 283 282 282 281 280 278 276 273 271 269 269 269 268 268 268 268 268 268 268 268 268 268 268 268 268 268 268 267
287 287 288 289 287 285 285 285 284 282 282 282 283 283 283 283 282 283 283 283 281 279 277 275 273 271 271 270 270 269 269 268 269 269 270 270 269 269 269 269 269 270 270 270
287 287 289 289 288 287 286 287 286 284 283 283 283 283 284 283 282 283 283 283 282 281 279 276 274 273 272 271 271 271 270 270 270 271 271 271 271 270 270 271 271 271 271 271
288 287 288 287 286 286 286 286 286 286 286 285 285 285 285 284 283 282 283 283 283 281 280 278 275 274 273 272 272 271 271 271 271 272 273 273 272 271 272 272 271 271 272 271
289 289 288 287 285 284 284 284 284 285 286 286 286 285 285 285 284 284 283 283 283 282 280 278 276 275 274 273 273 272 272 272 273 273 273 273 272 271 272 273 273 272 272 271
289 289 287 286 285 283 282 283 283 284 284 284 285 286 286 285 285 284 283 284 284 283 281 280 278 276 275 273 272 273 273 273 274 275 274 273 273 272 272 273 273 274 273 273
289 289 287 286 286 285 283 282 283 284 285 285 285 285 286 286 286 285 285 285 285 284 282 281 279 277 275 274 273 273 274 274 275 276 275 274 274 274 274 275 275 275 275 275
289 289 289 290 288 286 285 284 284 284 284 285 286 287 287 286 285 285 285 285 285 285 284 283 280 277 275 274 274 274 274 276 276 277 276 276 276 276 276 277 277 277 278 277
289 289 290 291 290 288 286 285 285 285 285 286 287 287 288 287 285 284 284 285 285 284 284 283 281 278 276 275 275 275 276 277 278 277 277 277 277 276 277 278 278 279 279 279
289 290 290 290 290 289 287 287 287 288 288 288 288 287 287 287 286 285 285 285 285 285 284 284 281 278 276 276 276 277 278 279 279 278 278 278 278 277 278 278 279 279 280 280
290 291 291 290 289 289 288 288 288 289 289 289 289 288 288 288 287 286 286 286 285 286 285 284 282 279 277 277 277 277 278 280 280 280 280 280 279 279 279 279 279 279 279 280
291 291 291 290 289 289 289 289 289 289 289 289 289 289 289 289 288 288 287 287 286 286 286 285 283 280 278 278 279 279 280 281 281 281 281 282 282 282 281 281 281 280 280 280
293 293 292 290 288 288 289 289 289 289 290 290 290 289 289 289 289 289 288 287 287 287 287 286 284 281 280 280 281 281 282 282 283 283 283 283 283 284 284 283 282 281 281 281
294 294 294 292 290 290 290 289 289 290 291 292 291 290 290 290 291 290 288 288 288 287 287 286 284 282 282 282 282 283 283 284 284 284 284 285 285 285 285 284 283 282 282 283
294 292 292 292 291 291 292 291 291 292 292 293 293 292 292 292 292 291 289 288 287 286 286 286 285 284 283 284 284 284 284 284 284 285 285 286 286 287 286 285 284 284 284 283
293 291 291 292 292 291 290 290 291 292 293 294 295 294 293 292 292 291 290 289 288 288 287 286 286 286 285 285 285 285 285 285 285 286 286 286 287 287 287 286 286 285 285 285
293 293 293 293 293 291 290 291 291 292 293 294 295 294 293 294 294 293 292 291 291 290 289 288 288 287 287 287 286 286 286 285 285 286 286 287 287 287 287 287 288 288 287 286
293 294 293 293 293 292 292 292 293 293 295 295 295 294 294 294 295 295 295 294 293 292 291 290 289 289 288 288 287 287 286 286 285 285 286 287 287 287 287 287 288 288 288 288
293 294 293 292 291 291 293 294 294 295 296 296 295 295 295 295 295 296 296 296 295 293 292 292 291 291 290 290 288 288 287 287 286 286 286 286 286 286 287 287 288 288 288 288
293 292 292 291 291 291 292 294 294 295 295 296 295 296 296 296 297 297 298 297 296 295 293 293 293 292 291 291 290 289 288 287 286 286 286 286 286 286 286 287 287 288 288 288
293 292 292 292 292 292 294 295 295 295 295 296 296 296 296 297 298 298 299 298 297 296 295 294 294 293 293 292 291 291 290 288 287 286 286 285 285 285 286 286 287 288 288 287
293 292 292 292 293 293 294 295 295 295 296 296 297 297 297 298 299 299 299 299 299 298 297 295 294 294 294 293 293 292 291 290 289 287 286 286 286 286 286 286 287 287 287 286
293 292 292 293 294 294 294 295 295 296 296 297 297 298 298 299 300 300 300 300 300 299 298 297 296 295 294 294 293 293 292 291 290 288 287 287 287 287 287 287 287 287 287 286
Height
5574 5572 5571 5570 5569 5567 5564 5563 5561 5561 5560 5560 5557 5554 5552 5551 5549 5548 5547 5546 5545 5545 5544 5544 5545 5545 5546 5546 5547 5548 5548 5549 5549 5549 5550 5550 5551 5552 5553 5554 5555 5556 5557 5557
5565 5563 5561 5560 5560 5558 5556 5554 5552 5551 5551 5550 5547 5544 5542 5541 5539 5538 5537 5536 5535 5534 5533 5533 5534 5534 5534 5535 5535 5536 5537 5537 5537 5537 5538 5538 5538 5539 5540 5540 5541 5542 5543 5543
5556 5554 5552 5551 5552 5549 5547 5545 5544 5542 5543 5539 5537 5534 5532 5531 5529 5528 5527 5525 5524 5523 5523 5522 5522 5522 5523 5523 5523 5524 5524 5525 5525 5525 5525 5525 5526 5526 5527 5527 5527 5528 5529 5529
5546 5545 5542 5545 5543 5540 5537 5536 5534 5532 5531 5529 5527 5525 5523 5521 5519 5518 5516 5515 5514 5513 5512 5511 5511 5511 5511 5511 5512 5512 5512 5512 5512 5512 5513 5513 5513 5513 5513 5513 5514 5514 5514 5515
5536 5533 5532 5535 5533 5530 5527 5527 5525 5523 5521 5519 5517 5515 5514 5511 5509 5508 5506 5505 5504 5503 5502 5501 5500 5500 5500 5499 5500 5500 5500 5499 5499 5500 5500 5500 5500 5499 5499 5500 5500 5499 5500 5500
5527 5524 5523 5526 5523 5519 5518 5517 5516 5513 5511 5509 5507 5506 5505 5502 5499 5498 5496 5495 5493 5492 5490 5489 5489 5488 5488 5488 5488 5487 5487 5487 5487 5487 5487 5487 5486 5486 5486 5486 5485 5485 5485 5485
5518 5514 5514 5515 5512 5510 5509 5509 5505 5503 5501 5499 5497 5496 5494 5491 5489 5487 5485 5484 5482 5481 5479 5478 5477 5476 5476 5476 5475 5475 5475 5475 5474 5474 5474 5473 5473 5473 5472 5472 5472 5472 5472 5471
5509 5506 5508 5505 5502 5501 5499 5497 5495 5493 5491 5489 5487 5485 5483 5481 5478 5476 5474 5473 5471 5469 5468 5466 5465 5465 5464 5464 5463 5463 5463 5462 5462 5462 5461 5460 5460 5459 5459 5458 5458 5458 5457 5457
5501 5501 5497 5494 5492 5490 5488 5486 5484 5482 5481 5478 5476 5474 5472 5470 5468 5466 5464 5462 5460 5458 5457 5455 5454 5453 5453 5452 5451 5451 5451 5450 5450 5449 5448 5447 5447 5446 5446 5445 5445 5445 5444 5443
5491 5490 5487 5484 5481 5480 5478 5476 5474 5472 5470 5468 5465 5463 5461 5459 5457 5455 5453 5451 5449 5447 5445 5444 5443 5442 5441 5441 5440 5440 5439 5439 5438 5437 5436 5435 5435 5434 5434 5433 5432 5432 5431 5430
5482 5480 5477 5474 5472 5470 5468 5466 5463 5461 5459 5457 5455 5453 5450 5448 5446 5444 5442 5440 5438 5436 5435 5433 5432 5431 5430 5429 5429 5428 5428 5427 5426 5426 5425 5424 5423 5422 5422 5421 5420 5419 5418 5417
5473 5470 5467 5465 5462 5460 5458 5456 5453 5451 5449 5447 5445 5442 5440 5438 5436 5434 5432 5430 5428 5426 5424 5422 5421 5420 5419 5418 5418 5418 5417 5416 5415 5415 5414 5413 5412 5411 5409 5409 5407 5406 5404 5403
5463 5460 5457 5455 5453 5450 5448 5446 5444 5441 5439 5437 5435 5432 5430 5428 5426 5424 5422 5419 5417 5415 5413 5411 5410 5409 5408 5408 5407 5407 5406 5405 5404 5403 5402 5401 5400 5399 5398 5397 5395 5393 5392 5390
5453 5451 5448 5446 5443 5441 5439 5436 5434 5432 5429 5427 5425 5422 5420 5418 5415 5413 5411 5409 5407 5405 5403 5401 5400 5399 5398 5397 5397 5396 5395 5394 5393 5392 5391 5390 5388 5387 5386 5384 5383 5381 5379 5377
5445 5441 5439 5436 5434 5431 5429 5427 5425 5422 5420 5417 5415 5412 5410 5408 5405 5403 5401 5399 5397 5395 5393 5391 5390 5389 5387 5387 5386 5385 5384 5383 5382 5380 5379 5378 5376 5375 5373 5372 5370 5368 5366 5364
5436 5433 5430 5427 5424 5422 5420 5417 5415 5413 5410 5408 5405 5403 5400 5398 5396 5393 5391 5389 5387 5386 5384 5382 5380 5379 5378 5377 5376 5375 5373 5372 5370 5369 5367 5366 5364 5362 5361 5359 5357 5355 5353 5351
5426 5424 5421 5418 5415 5413 5410 5408 5406 5403 5401 5398 5396 5393 5391 5388 5386 5384 5382 5380 5378 5376 5374 5372 5370 5369 5368 5366 5365 5364 5363 5361 5359 5357 5356 5354 5352 5350 5348 5346 5344 5342 5340 5338
5417 5414 5412 5409 5406 5403 5401 5399 5397 5394 5392 5389 5387 5384 5382 5380 5377 5375 5373 5371 5369 5367 5365 5362 5361 5359 5358 5356 5355 5353 5352 5350 5348 5346 5344 5342 5340 5338 5336 5333 5331 5330 5328 5326
5408 5406 5403 5400 5397 5395 5392 5390 5388 5386 5383 5381 5378 5375 5373 5371 5368 5366 5364 5362 5360 5358 5355 5353 5351 5349 5348 5346 5344 5342 5340 5339 5337 5334 5332 5330 5328 5326 5324 5322 5320 5318 5316 5315
5400 5397 5394 5392 5389 5386 5384 5382 5380 5377 5375 5372 5370 5367 5365 5362 5360 5357 5355 5353 5350 5348 5346 5344 5342 5340 5337 5335 5333 5331 5329 5327 5325 5323 5321 5319 5317 5315 5313 5311 5309 5307 5305 5303
5391 5388 5386 5383 5381 5378 5376 5374 5371 5369 5366 5364 5361 5359 5356 5354 5351 5349 5346 5344 5341 5338 5336 5334 5331 5329 5327 5325 5323 5321 5318 5316 5314 5312 5310 5309 5307 5305 5303 5301 5299 5297 5295 5293
5382 5380 5377 5375 5373 5370 5368 5365 5363 5361 5358 5356 5353 5350 5348 5345 5343 5340 5337 5334 5332 5329 5326 5324 5321 5319 5317 5314 5312 5310 5308 5306 5303 5302 5300 5298 5296 5294 5293 5291 5289 5287 5285 5283
5374 5371 5369 5366 5364 5362 5360 5357 5355 5352 5350 5347 5345 5342 5339 5337 5334 5331 5328 5325 5322 5319 5317 5314 5311 5309 5306 5304 5302 5300 5297 5295 5293 5291 5289 5288 5286 5284 5283 5281 5279 5277 5275 5273
5365 5362 5360 5358 5356 5354 5352 5349 5346 5344 5341 5339 5336 5333 5331 5328 5325 5322 5319 5316 5313 5310 5307 5304 5301 5299 5296 5294 5292 5290 5287 5285 5283 5281 5279 5277 5276 5274 5272 5271 5269 5267 5265 5263
5356 5354 5352 5350 5348 5345 5343 5340 5338 5335 5332 5330 5327 5324 5321 5319 5316 5313 5310 5307 5304 5301 5298 5295 5292 5289 5287 5284 5282 5279 5277 5275 5273 5271 5269 5267 5265 5264 5262 5261 5259 5257 5255 5253
5347 5345 5343 5341 5339 5337 5334 5332 5329 5326 5323 5321 5318 5315 5312 5310 5307 5304 5301 5297 5294 5291 5288 5285 5282 5280 5277 5275 5272 5270 5267 5265 5263 5261 5259 5257 5255 5254 5252 5251 5249 5247 5245 5244
5339 5337 5335 5333 5330 5328 5325 5323 5320 5318 5315 5312 5309 5306 5303 5300 5297 5294 5291 5288 5285 5282 5279 5276 5273 5271 5268 5265 5263 5260 5258 5255 5253 5251 5249 5247 5246 5244 5242 5241 5239 5238 5236 5234